STARLINK-33845, 63495

Orbit data source: Space-Track

STARLINK-33845, 63495 is a payload satellite owned by SpaceX/Seattle (US) in LEO that was launched on Mon, 07 Apr 2025 UTC via an FALCON 9 launch vehicle from the Air Force Western Test Range (AFWTR). Payload-class satellites include a variety of spacecraft equipped with specific instruments for various scientific and technological missions. These include communications satellites like Starlink; space stations such as the ISS; scientific satellites like the Hubble; Earth observation satellites from companies like Planet Labs, Umbra, and HawkEye 360; GPS; miniature CubeSats for education and research; and military/defense satellites.

Loading next visibility...
Identifier
63495, 2025-071C
Orbit
LEO
Last TLE update
11 hours ago
Origin
Manufacturer
SpaceX/Seattle
Mission
Operational Commercial Communications
Bus & Motor
STARLINK V2MO, Unknown motor
Mass
575 kg wet, ~530 kg dry
Launch date (UTC)
2025-04-07 (1 month ago)
Launch vehicle
FALCON 9
Launch site
Air Force Western Test Range (AFWTR)
Object type
Payload
Rocket body
Debris
Shape & HBR
Box + 1 Pan, 29 m
Radar Cross Section
41.120 m², Large (>1 m²)

Expand to show TLE details & history

TLE from 11 hours ago
0 STARLINK-33845
1 63495U 25071C   25128.91668981 -.00058067  00000-0 -14510-2 0  9999
2 63495  53.1599 120.0829 0000921  96.1229 281.3900 15.39657363  6023
Epoch: 2025-05-08T22:00Z
Definitive object data (Epoch: 2025-05-08T22:00:01.999Z)
Latitude
13.93414°
Longitude
-66.25352°
Altitude
447.157 km
Speed
7.646 km/s
True Right ascension
08h 42m 56s
True Declination
13° 51' 01"
Sunlit
Object was in daylight at TLE epoch
Visualization TLE readout
Latitude
48.96345°
Longitude
-20.22652°
Altitude
452.301 km
Speed
7.647 km/s
Apparent Right ascension
08h 20m 53s
Apparent Declination
9° 40' 50"
Sunlit
Object is in daylight
Visualization observer readout
Local Sidereal Time
17:17:18
Azimuth
308.802° NW
Elevation
-24.726°
Doppler factor
1
Orbital elements
Apogee altitude
448.008 km
Perigee altitude
446.751 km
Semi-major axis
6,825.516 km
Eccentricity
0.0000921
Inclination
53.1599°
RAAN
120.0829°
Arg. of periapsis
96.1229°
True anomaly
281.37965°
Mean anomaly
281.39°
Eccentric anomaly
281.38483°
Mean motion
3.84893 °/min
BSTAR
-0.001451
Orbital period
93.53 mins
Loading maneuver chart data...
Loading SW <> Apogee altitude chart data...
Loading historical data...
Loading historical data...
Loading historical data...
Loading historical data...
Loading historical data...
Loading historical data...
Loading historical data...

STARLINK-33845 Visibility forecast

Observer location: undefined°, undefined°

Span
Click to sort rows by Start time (UTC) header in descending order
Start Az.
Max El. time (UTC)
Max El. Az.
Max El.
End time (UTC)
End Az.
6 mins2025-05-09 09:20:01.571Z303.568° NW2025-05-09 09:23:01.571Z252.777° W40.417°2025-05-09 09:26:01.571Z144.642° SSE
5 mins2025-05-10 02:10:01.571Z239.801° WSW2025-05-10 02:12:01.571Z278.131° WNW41.843°2025-05-10 02:15:01.571Z44.151° NE
5 mins2025-05-10 08:43:01.571Z310.297° NW2025-05-10 08:45:01.571Z127.45° SE44.918°2025-05-10 08:48:01.571Z130.904° SE
|